Location: Banksville Park
(38.5557°N, 75.1182°W)
Time: 18:48:25
(UTC+00:00)

SAR-Lupe-1 - Pass Details

Date: 24 January 2021
Orbit: 482 x 484 km, 98.2° (Epoch: 02 March)

Event Time Altitude Azimuth Distance (km) Brightness Sun altitude
Exits shadow 23:19:26 - 22° (NNE) 1,838 6.7 -13.0°
Reaches altitude 10° 23:19:51 10° 23° (NNE) 1,668 6.4 -13.0°
Maximum altitude 23:23:21 52° 101° (E) 608 4.2 -13.7°
Drops below altitude 10° 23:26:50 10° 178° (S) 1,655 6.9 -14.4°
Sets 23:28:55 0° 184° (S) 2,529 7.9 -14.8°
